DW4230 Weather Reports


time (UTC)temp
F
wind
direction
speed
knots
gust
knots
rain 1hr
in
rain 24hr
in
rain mn
in
humidity
%
barometer
mb
20260901023048 68 124 2.6 6.1 0.00 0.69 0.15 84 1017.3
20260901021510 68 191 0.9 4.3 0.00 0.69 0.15 85 1017.2
20260901020051 68 124 2.6 7.8 0.00 0.69 0.15 86 1017.3
20260901014509 68 124 1.7 3.5 0.00 0.69 0.15 87 1017.2
20260901013041 68 124 1.7 7.0 0.00 0.69 0.15 87 1017.2
20260901010045 68 124 0.0 5.2 0.00 0.69 0.15 86 1017.4
20260901004518 68 124 1.7 6.1 0.00 0.69 0.15 86 1017.3
20260901003040 68 124 0.9 7.8 0.00 0.69 0.15 85 1017.5
20260901001515 68 209 1.7 5.2 0.00 0.69 0.15 85 1017.6
20260901000046 68 124 0.9 4.3 0.00 0.69 0.15 86 1017.5
20260831234512 68 124 0.9 7.0 0.00 0.69 0.15 86 1017.5
20260831233059 68 124 0.9 4.3 0.00 0.69 0.15 86 1017.4
20260831231521 69 124 1.7 7.0 0.00 0.69 0.15 85 1017.4
20260831230104 69 124 1.7 7.8 0.00 0.69 0.15 85 1017.5
20260831224526 69 124 2.6 7.0 0.00 0.69 0.15 85 1017.5
20260831223023 70 124 0.9 4.3 0.00 0.69 0.15 83 1017.5
20260831221547 70 124 0.0 4.3 0.00 0.69 0.15 84 1017.6
20260831220007 71 124 0.9 6.1 0.00 0.69 0.15 83 1017.5
20260831214556 72 124 0.9 5.2 0.00 0.69 0.15 81 1017.6
20260831213009 72 124 2.6 5.2 0.00 0.69 0.15 80 1017.7
20260831211554 72 124 2.6 4.3 0.00 0.69 0.15 81 1017.7
20260831210032 72 124 1.7 6.1 0.00 0.69 0.15 82 1017.4
20260831204609 72 124 0.0 5.2 0.00 0.69 0.15 81 1017.4
20260831203028 74 234 3.5 7.8 0.00 0.69 0.15 77 1017.8
20260831201505 74 124 4.3 8.7 0.00 0.69 0.15 77 1017.6
20260831200042 75 198 0.9 6.1 0.00 0.69 0.15 68 1017.7
20260831194607 74 124 1.7 3.5 0.00 0.69 0.15 70 1017.8
20260831193028 73 150 0.0 5.2 0.00 0.69 0.15 71 1017.6
20260831191554 73 148 0.0 4.3 0.00 0.69 0.15 70 1018.0
20260831190011 73 148 0.9 4.3 0.00 0.69 0.15 66 1018.0
20260831184550 73 147 0.9 4.3 0.00 0.69 0.15 64 1018.3
20260831183014 73 145 1.7 4.3 0.00 0.69 0.15 68 1017.9
20260831181608 73 86 2.6 6.1 0.00 0.69 0.15 64 1018.1
20260831180037 74 189 1.7 6.1 0.00 0.69 0.15 63 1018.4
20260831174503 74 146 2.6 6.1 0.00 0.69 0.15 63 1018.1
20260831173038 72 153 0.9 5.2 0.00 0.69 0.15 65 1018.3
20260831171609 73 104 1.7 7.0 0.00 0.69 0.15 68 1018.4
20260831170035 72 119 1.7 5.2 0.00 0.69 0.15 69 1018.6
20260831164614 72 147 2.6 7.8 0.00 0.69 0.15 68 1018.6
20260831163037 72 156 3.5 9.6 0.00 0.69 0.15 68 1018.6
20260831161505 72 72 4.3 7.8 0.00 0.69 0.15 73 1018.7
20260831160028 71 96 4.3 9.6 0.00 0.69 0.15 76 1018.6
20260831154613 70 68 4.3 9.6 0.00 0.69 0.15 77 1019.1
20260831153031 71 64 2.6 8.7 0.00 0.69 0.15 78 1019.1
20260831151600 70 54 3.5 7.8 0.00 0.69 0.15 78 1018.9
20260831150019 70 75 1.7 7.0 0.00 0.69 0.15 78 1019.0
20260831144536 70 29 3.5 7.8 0.00 0.69 0.15 77 1019.0
20260831143114 70 66 3.5 8.7 0.00 0.69 0.15 79 1018.8
20260831141539 70 37 4.3 8.7 0.00 0.69 0.15 82 1018.9
20260831140003 69 60 4.3 9.6 0.00 0.69 0.15 85 1018.7
20260831134546 69 100 4.3 9.6 0.00 0.69 0.15 85 1018.4
20260831133007 69 37 4.3 9.6 0.00 0.69 0.15 86 1018.3
20260831131557 68 31 4.3 10.4 0.00 0.69 0.15 87 1018.3
20260831130007 68 44 3.5 8.7 0.00 0.69 0.15 88 1018.3
20260831124545 68 62 3.5 8.7 0.00 0.69 0.15 88 1018.4
20260831123006 68 73 4.3 8.7 0.00 0.69 0.15 89 1018.4
20260831121550 67 60 0.9 5.2 0.00 0.69 0.15 91 1018.2
20260831120017 66 41 2.6 7.8 0.00 0.69 0.15 91 1018.2
20260831114554 66 68 3.5 7.8 0.00 0.69 0.15 93 1018.1
20260831113021 66 48 2.6 7.0 0.00 0.69 0.15 94 1017.9
20260831111605 66 51 2.6 6.1 0.00 0.69 0.15 94 1017.8
20260831110033 66 65 2.6 5.2 0.00 0.69 0.15 95 1017.7
20260831104513 66 79 1.7 5.2 0.01 0.69 0.15 95 1017.5
20260831103038 66 43 1.7 4.3 0.01 0.69 0.15 95 1017.7
20260831101609 66 53 2.6 6.1 0.01 0.69 0.15 94 1017.0
20260831100047 66 48 1.7 5.2 0.01 0.69 0.15 94 1016.9
20260831094522 66 67 1.7 6.1 0.00 0.68 0.14 94 1016.8
20260831093056 66 50 1.7 4.3 0.00 0.68 0.14 94 1016.7
20260831091521 66 5 1.7 5.2 0.00 0.68 0.14 95 1016.6
20260831090123 66 40 1.7 5.2 0.00 0.68 0.14 95 1016.4
20260831084525 67 356 1.7 6.1 0.00 0.68 0.14 95 1016.4
20260831083112 67 21 1.7 4.3 0.00 0.68 0.14 95 1016.4
20260831081521 67 353 2.6 6.1 0.00 0.68 0.14 95 1016.1
20260831080123 67 355 2.6 5.2 0.00 0.68 0.14 95 1016.1
20260831074503 68 360 0.0 6.1 0.00 0.68 0.14 95 1015.9
20260831073041 68 73 0.0 2.6 0.00 0.68 0.14 95 1015.8
20260831071606 68 73 0.9 2.6 0.00 0.68 0.14 95 1015.6
20260831070035 68 73 0.0 2.6 0.00 0.68 0.14 95 1015.5
20260831064511 68 73 0.0 3.5 0.00 0.68 0.14 95 1015.5
20260831063051 68 73 0.9 3.5 0.00 0.68 0.14 95 1015.5
20260831061503 68 73 0.0 4.3 0.00 0.68 0.14 95 1015.5
20260831060032 69 73 0.0 6.1 0.00 0.68 0.14 95 1015.4
20260831054612 69 355 0.9 2.6 0.07 0.68 0.14 94 1015.3
20260831053057 69 356 0.0 0.0 0.17 0.68 0.14 94 1015.3
20260831051516 69 356 0.0 0.0 0.32 0.68 0.14 94 1015.2
20260831050057 69 356 0.0 2.6 0.45 0.68 0.14 94 1015.2
20260831044540 69 9 0.9 5.2 0.52 0.60 0.06 94 1015.4
20260831043103 70 297 0.0 3.5 0.47 0.51 0.51 94 1015.6
20260831041532 70 283 0.9 4.3 0.34 0.35 0.35 94 1015.6
20260831040106 70 273 2.6 7.0 0.23 0.23 0.23 94 1015.8
20260831034536 70 252 1.7 7.0 0.08 0.08 0.08 93 1015.8
20260831033112 71 259 2.6 7.0 0.04 0.04 0.04 93 1015.8
20260831031551 71 277 0.9 8.7 0.01 0.01 0.01 92 1015.9
20260831030020 71 277 1.7 7.0 0.00 0.00 0.00 91 1016.1
20260831024559 71 297 3.5 9.6 0.00 0.00 0.00 91 1016.1